Location: Brunembert
(50.7122°N, 1.8935°E)
Time: 08:49:03
(UTC+00:00)

USA 245 - Pass Details

Date: 22 April 2021
Orbit: 268 x 984 km, 97.9° (Epoch: 02 May)

Event Time Altitude Azimuth Distance (km) Brightness Sun altitude
Exits shadow 20:05:55 15° 117° (ESE) 1,344 4.6 -10.2°
Maximum altitude 20:07:55 25° 70° (ENE) 913 4.1 -10.4°
Drops below altitude 10° 20:10:24 10° 13° (NNE) 1,400 5.7 -10.7°
Sets 20:12:22 0° 358° (N) 2,162 6.9 -11.0°
